Lid_Strength_Index
2 2 2 2 2 1 0 0 0 0 0 -0 -1 -1 -1 -1 2 3 1 2 1 -0 -1 -1 -2 -1 -1 -2 -1 -1 -1 -2 -2
3 3 3 3 2 2 2 1 -0 0 0 0 -0 -0 -0 2 3 3 2 3 0 -0 -1 -1 -2 -1 -1 -1 -2 -2 -2 -2 -2
2 2 2 3 2 2 2 2 1 1 1 0 0 -0 -0 1 4 4 2 2 1 0 -1 -1 -1 -2 -1 -1 -2 -2 -1 -1 -1
2 1 1 1 1 2 2 2 2 2 1 1 2 2 1 2 3 4 4 1 1 0 -0 -1 -1 -2 -1 -2 -2 -2 -1 -1 -1
3 3 2 1 1 1 1 1 2 2 3 3 3 3 4 7 6 5 5 1 -0 0 0 -0 -1 -2 -1 -1 -2 -2 -2 -1 -1
7 4 2 2 2 2 2 2 2 2 3 4 5 5 8 8 7 6 4 2 0 -0 0 0 -1 -2 -1 -1 -1 -1 -2 -2 -2
5 5 3 3 3 3 3 3 3 4 7 8 6 9 9 9 8 7 3 2 1 -0 0 1 -0 -2 -2 -1 -1 -1 -1 -1 -1
8 8 8 8 5 7 6 7 7 7 7 7 8 8 9 9 9 8 4 3 2 1 1 -0 -1 -2 -1 -1 -1 -1 -1 -1 -1
9 9 8 7 7 7 6 7 7 7 7 7 8 8 8 8 8 9 5 3 2 1 1 -0 -1 -2 -0 -0 -1 -1 -1 -1 -1
9 9 8 8 7 7 7 7 6 6 7 7 7 8 8 8 7 8 5 3 2 1 1 0 -2 -2 -1 1 -1 -1 -1 -1 -1
9 8 8 8 7 7 6 6 6 6 6 6 6 7 7 8 7 7 8 4 2 1 1 -0 -2 -2 -1 -0 -1 -1 -1 -1 -1
9 9 8 7 7 7 7 6 5 6 5 5 5 6 7 7 8 7 7 7 4 3 1 1 -2 -1 -1 -1 -1 -1 -1 -1 -1
9 8 7 7 7 6 7 6 6 7 6 6 5 5 6 7 8 7 7 7 7 5 2 1 -2 -1 -1 -1 -1 0 2 2 0
9 8 7 7 7 6 5 5 6 6 5 6 5 5 6 7 6 7 7 7 6 7 4 1 -1 -1 -2 -2 -1 -1 0 2 1
8 8 8 7 6 5 4 5 5 5 5 4 4 5 6 6 7 7 7 7 7 7 7 5 4 -1 -1 -1 -2 -1 1 1 2
8 7 6 5 5 4 4 4 6 5 4 5 6 5 6 7 8 7 8 8 7 8 7 4 4 3 -1 -1 -1 -1 0 1 2
7 7 6 5 5 4 5 4 5 4 3 5 5 8 8 6 6 7 8 9 8 8 7 5 4 4 4 3 -1 1 1 1 1
7 5 4 3 4 5 5 5 5 5 4 3 5 7 9 7 5 6 6 7 8 9 8 7 5 5 5 2 1 0 2 2 2
7 4 4 4 4 5 5 4 4 4 5 3 2 3 5 7 8 6 5 6 7 8 8 8 6 5 5 3 1 -0 -0 2 3
7 4 4 4 4 4 5 4 4 4 4 4 4 4 4 5 7 9 7 6 7 8 8 8 8 6 5 6 4 0 -1 -0 3